When you browse on this site, cookies collect data to enhance your experience and personalize the content and advertising you see.
Visit our Privacy Policy to learn more. By continuing to use the site, you agree to this use of cookies and data.
  • In Slovakia
  • List of Countries
  • For 7 days
  • Water Temperature
  • Satellite Maps
  • Weather Map
  • Weather Widgets
  • user-avatar
    Login

    Hourly Weather Bukino

    Today, 19 February, Tuesday

    Time Temperature Precipitation Wind Pressure Humidity
    00:00 -8°C° 0 mm 3 mps 743 mmHg 86%
    01:00 -9°C° 0 mm 4 mps 743 mmHg 83%
    02:00 -8°C° 0 mm 4 mps 742 mmHg 80%
    03:00 -8°C° 0 mm 4 mps 741 mmHg 78%
    04:00 -7°C° 0 mm 5 mps 740 mmHg 76%
    05:00 -7°C° 0 mm 5 mps 740 mmHg 74%
    06:00 -7°C° 0 mm 5 mps 739 mmHg 75%
    07:00 -6°C° 0 mm 5 mps 739 mmHg 76%
    08:00 -6°C° 0 mm 5 mps 738 mmHg 77%
    09:00 -5°C° 0 mm 5 mps 738 mmHg 79%
    10:00 -4°C° 0 mm 5 mps 738 mmHg 81%
    11:00 -2°C° 0 mm 5 mps 737 mmHg 83%
    12:00 -1°C° 0 mm 4 mps 737 mmHg 84%
    13:00 -1°C° 0 mm 4 mps 736 mmHg 85%
    14:00 0°C° 0 mm 4 mps 736 mmHg 86%
    15:00 -1°C° 0 mm 4 mps 735 mmHg 87%
    16:00 -1°C° 0 mm 4 mps 735 mmHg 87%
    17:00 -2°C° 0 mm 4 mps 734 mmHg 88%
    18:00 -2°C° 0 mm 4 mps 734 mmHg 88%
    19:00 -2°C° 0 mm 5 mps 733 mmHg 88%
    20:00 -1°C° 0 mm 5 mps 732 mmHg 89%
    21:00 -1°C° 0 mm 5 mps 731 mmHg 89%
    22:00 -1°C° 0 mm 5 mps 731 mmHg 89%
    23:00 -1°C° 0 mm 5 mps 730 mmHg 89%

    Tomorrow, 20 February, Wednesday

    Time Temperature Precipitation Wind Pressure Humidity
    00:00 -1°C° 0.1 mm 5 mps 729 mmHg 89%
    01:00 -1°C° 0.1 mm 5 mps 729 mmHg 90%
    02:00 -1°C° 0.1 mm 4 mps 728 mmHg 90%
    03:00 -1°C° 0.2 mm 4 mps 728 mmHg 91%
    04:00 -1°C° 0.2 mm 5 mps 727 mmHg 91%
    05:00 0°C° 0.2 mm 5 mps 727 mmHg 92%
    06:00 -1°C° 0.1 mm 4 mps 727 mmHg 93%
    07:00 -1°C° 0.1 mm 4 mps 727 mmHg 93%
    08:00 -1°C° 0.1 mm 4 mps 727 mmHg 94%
    09:00 -1°C° 0.1 mm 4 mps 727 mmHg 93%
    10:00 0°C° 0.1 mm 4 mps 727 mmHg 92%
    11:00 0°C° 0.1 mm 4 mps 727 mmHg 91%
    12:00 0°C° 0.3 mm 4 mps 726 mmHg 91%
    13:00 0°C° 0.3 mm 4 mps 726 mmHg 91%
    14:00 0°C° 0.3 mm 4 mps 726 mmHg 90%
    15:00 0°C° 0.2 mm 4 mps 726 mmHg 90%
    16:00 0°C° 0.2 mm 4 mps 725 mmHg 90%
    17:00 -1°C° 0.2 mm 4 mps 725 mmHg 90%
    18:00 -1°C° 0.3 mm 4 mps 725 mmHg 91%
    19:00 0°C° 0.3 mm 3 mps 725 mmHg 92%
    20:00 0°C° 0.3 mm 3 mps 725 mmHg 93%
    21:00 0°C° 0.3 mm 3 mps 725 mmHg 93%
    22:00 0°C° 0.3 mm 3 mps 725 mmHg 92%
    23:00 -2°C° 0.3 mm 4 mps 725 mmHg 92%

    Day after tomorrow, 21 February, Thursday

    Time Temperature Precipitation Wind Pressure Humidity
    00:00 -2°C° 0.3 mm 4 mps 725 mmHg 92%
    01:00 -4°C° 0.3 mm 5 mps 726 mmHg 92%
    02:00 -4°C° 0.3 mm 5 mps 726 mmHg 91%
    03:00 -5°C° 0.2 mm 6 mps 727 mmHg 90%
    04:00 -6°C° 0.2 mm 6 mps 727 mmHg 88%
    05:00 -8°C° 0.2 mm 6 mps 727 mmHg 86%
    06:00 -8°C° 0.1 mm 6 mps 728 mmHg 86%
    07:00 -9°C° 0.1 mm 6 mps 729 mmHg 85%
    08:00 -9°C° 0.1 mm 6 mps 729 mmHg 85%
    09:00 -9°C° 0.1 mm 6 mps 730 mmHg 85%
    10:00 -9°C° 0.1 mm 6 mps 731 mmHg 85%
    11:00 -9°C° 0.1 mm 7 mps 732 mmHg 84%
    12:00 -9°C° 0.2 mm 6 mps 733 mmHg 83%
    13:00 -10°C° 0.2 mm 6 mps 734 mmHg 82%
    14:00 -10°C° 0.2 mm 6 mps 735 mmHg 81%
    15:00 -11°C° 0.1 mm 6 mps 736 mmHg 81%
    16:00 -11°C° 0.1 mm 6 mps 737 mmHg 80%
    17:00 -12°C° 0.1 mm 6 mps 738 mmHg 80%
    18:00 -12°C° 0.1 mm 6 mps 739 mmHg 80%
    19:00 -14°C° 0.1 mm 6 mps 740 mmHg 79%
    20:00 -15°C° 0.1 mm 6 mps 741 mmHg 79%
    21:00 -14°C° 0 mm 5 mps 741 mmHg 79%
    22:00 -14°C° 0 mm 5 mps 742 mmHg 80%
    23:00 -14°C° 0 mm 5 mps 743 mmHg 80%

    22 February, Friday

    Time Temperature Precipitation Wind Pressure Humidity
    00:00 -15°C° 0 mm 5 mps 743 mmHg 81%
    01:00 -15°C° 0 mm 5 mps 744 mmHg 82%
    02:00 -15°C° 0 mm 5 mps 744 mmHg 82%
    03:00 -17°C° 0 mm 5 mps 745 mmHg 82%
    04:00 -17°C° 0 mm 5 mps 745 mmHg 82%
    05:00 -17°C° 0 mm 5 mps 746 mmHg 82%
    06:00 -17°C° 0 mm 5 mps 746 mmHg 81%
    07:00 -16°C° 0 mm 4 mps 747 mmHg 81%
    08:00 -16°C° 0 mm 4 mps 747 mmHg 80%
    09:00 -15°C° 0 mm 5 mps 747 mmHg 80%
    10:00 -13°C° 0 mm 5 mps 747 mmHg 80%
    11:00 -12°C° 0 mm 5 mps 748 mmHg 81%
    12:00 -12°C° 0.1 mm 5 mps 748 mmHg 79%
    13:00 -12°C° 0.1 mm 5 mps 748 mmHg 78%
    14:00 -12°C° 0.1 mm 5 mps 748 mmHg 77%
    15:00 -13°C° 0 mm 5 mps 748 mmHg 79%
    16:00 -13°C° 0 mm 5 mps 749 mmHg 80%
    17:00 -14°C° 0 mm 5 mps 749 mmHg 81%
    18:00 -15°C° 0 mm 5 mps 750 mmHg 81%
    19:00 -15°C° 0 mm 5 mps 750 mmHg 81%
    20:00 -15°C° 0 mm 5 mps 751 mmHg 80%
    21:00 -17°C° 0 mm 5 mps 751 mmHg 82%
    22:00 -16°C° 0 mm 4 mps 752 mmHg 83%
    23:00 -16°C° 0 mm 4 mps 752 mmHg 84%

    23 February, Saturday

    Time Temperature Precipitation Wind Pressure Humidity
    00:00 -16°C° 0 mm 4 mps 752 mmHg 85%
    01:00 -17°C° 0 mm 4 mps 753 mmHg 87%
    02:00 -16°C° 0 mm 3 mps 753 mmHg 88%
    03:00 -17°C° 0 mm 3 mps 753 mmHg 90%
    04:00 -17°C° 0 mm 3 mps 753 mmHg 92%
    05:00 -17°C° 0 mm 3 mps 753 mmHg 93%
    06:00 -18°C° 0 mm 3 mps 753 mmHg 93%
    07:00 -17°C° 0 mm 2 mps 753 mmHg 93%
    08:00 -17°C° 0 mm 2 mps 754 mmHg 94%
    09:00 -16°C° 0 mm 2 mps 754 mmHg 89%
    10:00 -14°C° 0 mm 2 mps 754 mmHg 85%
    11:00 -13°C° 0 mm 2 mps 754 mmHg 81%
    12:00 -12°C° 0 mm 2 mps 754 mmHg 78%
    13:00 -10°C° 0 mm 2 mps 754 mmHg 76%
    14:00 -9°C° 0 mm 2 mps 754 mmHg 74%
    15:00 -9°C° 0 mm 2 mps 753 mmHg 79%
    16:00 -9°C° 0 mm 1 mps 753 mmHg 84%
    17:00 -9°C° 0 mm 1 mps 753 mmHg 88%
    18:00 -10°C° 0 mm 1 mps 754 mmHg 88%
    19:00 -10°C° 0 mm 1 mps 754 mmHg 89%
    20:00 -10°C° 0 mm 1 mps 754 mmHg 89%
    21:00 -10°C° 0 mm 1 mps 754 mmHg 87%
    22:00 -10°C° 0 mm 1 mps 754 mmHg 86%
    23:00 -10°C° 0 mm 1 mps 754 mmHg 85%

    24 February, Sunday

    Time Temperature Precipitation Wind Pressure Humidity
    00:00 -10°C° 0 mm 1 mps 754 mmHg 85%
    01:00 -9°C° 0 mm 1 mps 754 mmHg 85%
    02:00 -10°C° 0 mm 2 mps 754 mmHg 85%
    03:00 -10°C° 0 mm 2 mps 754 mmHg 88%
    04:00 -10°C° 0 mm 2 mps 754 mmHg 91%
    05:00 -10°C° 0 mm 2 mps 754 mmHg 94%
    06:00 -10°C° 0 mm 2 mps 754 mmHg 94%
    07:00 -9°C° 0 mm 2 mps 754 mmHg 95%
    08:00 -9°C° 0 mm 2 mps 754 mmHg 96%
    09:00 -7°C° 0 mm 2 mps 754 mmHg 94%
    10:00 -6°C° 0 mm 2 mps 754 mmHg 92%
    11:00 -4°C° 0 mm 2 mps 754 mmHg 90%
    12:00 -5°C° 0 mm 3 mps 753 mmHg 90%
    13:00 -4°C° 0 mm 3 mps 753 mmHg 90%
    14:00 -4°C° 0 mm 3 mps 753 mmHg 90%
    15:00 -4°C° 0 mm 3 mps 752 mmHg 91%
    16:00 -4°C° 0 mm 3 mps 752 mmHg 92%
    17:00 -4°C° 0 mm 3 mps 751 mmHg 93%
    18:00 -4°C° 0.1 mm 3 mps 751 mmHg 93%
    19:00 -4°C° 0.1 mm 3 mps 751 mmHg 93%
    20:00 -4°C° 0.1 mm 4 mps 750 mmHg 94%
    21:00 -4°C° 0.2 mm 4 mps 750 mmHg 94%
    22:00 -3°C° 0.2 mm 4 mps 749 mmHg 94%
    23:00 -3°C° 0.2 mm 4 mps 749 mmHg 94%
    Show more